[[{"header":{"parameterUnit":"m.s-1","parameterCategory":1,"la1":30.2991,"la2":30.254,"lo1":-89.0895,"lo2":-89.0444,"dy":0.0017,"dx":0.0017,"nx":28,"ny":28,"refTime":"2024-07-09T09:00:00:Z","depth":0,"parameterNumber":2,"parameterNumberName":"U-component_of_WINDS"},"data":[0,0,0,0,0,0,0,0,0,0,0,0,0,0,0,0,0,0,0,0,0,0,0,0,0,0,0,0,0,0,0,0,0,0,0,0,0,0,0,0,0,0,0,0,0,0,0,0,0,0,0,0,0,0,0,0,0,0,2.9402,2.9403,0,2.948,2.9481,2.9482,2.9475,2.9474,2.9473,2.9472,2.9551,2.9554,2.9557,0,0,0,0,0,0,0,0,0,0,0,0,0,2.9245,2.9248,2.9402,2.9403,2.9404,2.948,2.9481,2.9482,2.9476,2.9474,2.9473,2.9471,2.955,2.9553,2.9557,0,0,0,0,0,0,0,0,0,0,0,0,0,2.9317,2.9249,2.9402,2.941,2.9411,2.948,2.9481,2.9483,2.9476,2.9474,2.9472,2.9471,2.9548,2.9553,2.9558,2.9623,0,0,2.9572,2.9574,0,0,0,0,0,0,0,0,2.9313,2.9323,2.9408,2.9409,2.9411,2.9466,2.9455,2.953,2.9476,2.9451,2.9472,2.947,2.9524,2.9531,2.9549,2.9627,2.963,2.9573,2.9576,2.9578,2.9579,0,0,0,0,0,0,0,2.9308,2.9319,2.9433,2.9409,2.9411,2.9409,2.9417,2.9469,2.9497,2.9453,2.9453,2.9462,2.9524,2.9545,2.9551,2.9631,2.9573,2.9577,2.958,2.9582,2.9765,2.9767,0,0,0,0,0,0,2.9301,2.9315,2.943,2.9435,2.9357,2.9413,2.9422,2.945,2.9496,2.9501,2.9464,2.9462,2.9537,2.9545,2.9554,2.9632,2.9578,2.9582,2.9585,2.9763,2.9765,2.9768,0,0,0,0,0,0,2.9298,2.9312,2.9427,2.9375,2.939,2.9418,2.9449,2.9453,2.9473,2.9504,2.9509,2.9479,2.9536,2.9547,2.9606,2.9635,2.9584,2.9589,2.9761,2.9764,2.9767,2.979,0,0,0,0,0,0,2.9294,2.9311,2.9336,2.9376,2.9393,2.9478,2.9451,2.9456,2.9481,2.9479,2.952,2.9525,2.9536,2.9598,2.961,2.964,2.9593,2.9758,2.9762,2.9766,2.9786,2.9793,2.9799,0,0,0,0,0,2.9288,2.934,2.9337,2.9351,2.9425,2.948,2.949,2.9501,2.9484,2.9509,2.9529,2.9523,2.963,2.9605,2.9618,2.965,2.9756,2.9761,2.9765,2.9784,2.9792,2.9799,0,0,0,0,0,0,2.9302,2.9345,2.9343,2.9409,2.9441,2.9479,2.9511,2.951,2.9547,2.9544,2.9556,2.9565,2.9624,2.9643,2.9614,2.9715,2.9691,2.9698,2.97,2.9708,2.9714,2.9708,2.9597,0,0,0,0,0,2.9313,2.9354,2.939,2.9444,2.9461,2.9483,2.9508,2.9514,2.9547,2.9561,2.9585,2.9617,2.9658,2.9684,2.9723,2.979,2.9798,2.9818,2.9824,2.9829,2.9835,2.987,2.9879,2.9782,2.9782,2.9782,0,0,2.9335,2.9364,2.9389,2.9448,2.9473,2.9515,2.9495,2.954,2.9571,2.9568,2.9624,2.9643,2.968,2.9742,2.9771,2.976,2.9864,2.9835,2.9839,2.9842,2.9876,2.9885,2.9893,2.9785,2.9785,2.9784,0,0,2.9398,2.9424,2.9472,2.9498,2.9537,2.9552,2.9563,2.9602,2.9614,2.9671,2.9669,2.9706,2.9776,2.9802,2.9824,2.9896,2.9892,2.9909,2.9941,2.9975,2.9982,2.9989,3.0013,3.0022,2.9915,2.9915,2.9915,0,2.942,2.9484,2.9497,2.9543,2.9568,2.9567,2.9615,2.964,2.9689,2.9706,2.9693,2.9781,2.9805,2.9873,2.9891,2.9909,2.9922,2.9904,2.998,2.9987,2.9994,3.0017,3.0026,2.9917,2.9916,2.9916,2.9916,0,2.951,2.9554,2.9588,2.9636,2.9665,2.9712,2.9731,2.9759,2.9763,2.9779,2.9836,2.9866,2.9911,2.9928,2.9932,2.9996,2.9988,2.9978,2.9953,3.0004,3.0026,3.0036,2.9919,2.9918,2.9918,2.9917,0,0,2.9582,2.9637,2.9649,2.967,2.9713,2.9747,2.9793,2.9837,2.986,2.9895,2.9933,2.9992,2.9983,3.0008,3.0016,3.0046,3.0099,3.0032,3.0033,3.0042,3.017,3.0176,3.0187,3.0097,3.0099,3.0101,3.0167,0,2.9647,2.973,2.9742,2.9814,2.9855,2.9855,2.9895,2.9925,2.9941,2.9977,2.9995,3.0036,3.0022,3.0037,3.0067,3.0086,3.0125,3.0082,3.0132,3.0134,3.0121,3.0198,3.0205,3.0266,3.0175,3.0177,3.0178,0,2.9734,2.9771,2.9847,2.9884,2.9901,2.9937,2.9978,3.0013,3.0047,3.0057,3.0085,3.0089,3.0136,3.0111,3.0176,3.0146,3.0167,3.018,3.0183,3.0187,3.0158,3.0203,3.0286,3.0294,3.0192,3.0191,3.019,0,2.9777,2.9846,2.99,2.9918,2.9963,2.9988,3.0008,3.004,3.0066,3.0102,3.0118,3.0159,3.0181,3.0212,3.0226,3.0207,3.029,3.0266,3.0298,3.0298,3.0314,3.0313,3.04,3.0331,3.0331,3.0331,3.033,0,2.9847,2.9894,2.992,2.9953,3.0004,3.0018,3.0069,3.0088,3.0117,3.0153,3.0156,3.019,3.0207,3.0244,3.0255,3.0306,3.0317,3.0325,3.0327,3.0324,3.0323,3.0337,3.0332,3.0333,3.0332,3.0332,3.0332,0,2.9903,2.9923,2.9982,3.0019,3.003,3.0066,3.0098,3.013,3.0146,3.0192,3.0203,3.0229,3.0272,3.0289,3.0342,3.035,3.0408,3.0408,3.0396,3.0397,3.0427,3.0423,3.0526,3.0539,3.0462,3.0463,3.0463,0,2.9946,2.9982,3.0023,3.0048,3.0069,3.0108,3.0134,3.015,3.0176,3.0218,3.0244,3.0288,3.0323,3.0391,3.0414,3.0454,3.0454,3.0487,3.046,3.0455,3.0453,3.045,3.0453,3.0491,3.0492,3.0493,3.0493,0,3.002,3.0027,3.0065,3.0106,3.0137,3.017,3.0202,3.0222,3.0242,3.0272,3.0316,3.0343,3.0397,3.0439,3.0481,3.0501,3.05,3.0502,3.0511,3.0507,3.0498,3.0502,3.0408,3.0499,3.0499,3.0498,3.0498,3.0498,3.0069,3.01,3.0134,3.0176,3.0202,3.0232,3.0263,3.0283,3.032,3.0365,3.0372,3.0419,3.0452,3.0508,3.0529,3.0566,3.0557,3.0571,3.0574,3.0577,3.0578,3.0494,3.0574,3.0573,3.0573,3.0573,3.0573,0,3.0141,3.0163,3.0201,3.0246,3.0279,3.0276,3.0312,3.0339,3.038,3.0411,3.0445,3.0496,3.0537,3.0563,3.0604,3.0628,3.0629,3.0639,3.0636,3.064,3.0584,3.0571,3.0637,3.0637,3.0637,3.0637,3.0637,3.0637,3.0182,3.0235,3.0246,3.0311,3.0333,3.0379,3.0399,3.0426,3.0451,3.0507,3.0541,3.0558,3.0587,3.0631,3.0668,3.0675,3.0689,3.0699,3.0705,3.0651,3.0644,3.0638,3.0626,3.0702,3.0702,3.0758,3.0758,3.0759]},{"header":{"parameterUnit":"m.s-1","parameterCategory":1,"la1":30.2991,"la2":30.254,"lo1":-89.0895,"lo2":-89.0444,"dy":0.0017,"dx":0.0017,"nx":28,"ny":28,"refTime":"2024-07-09T09:00:00:Z","depth":0,"parameterNumber":3,"parameterNumberName":"V-component_of_WINDS"},"data":[0,0,0,0,0,0,0,0,0,0,0,0,0,0,0,0,0,0,0,0,0,0,0,0,0,0,0,0,0,0,0,0,0,0,0,0,0,0,0,0,0,0,0,0,0,0,0,0,0,0,0,0,0,0,0,0,0,0,6.6178,6.6179,0,6.629,6.6291,6.6293,6.6275,6.6273,6.6272,6.627,6.6377,6.6381,6.6386,0,0,0,0,0,0,0,0,0,0,0,0,0,6.5939,6.5943,6.6178,6.6179,6.618,6.629,6.6291,6.6293,6.6276,6.6273,6.6271,6.6269,6.6375,6.638,6.6386,0,0,0,0,0,0,0,0,0,0,0,0,0,6.6046,6.5945,6.6177,6.6185,6.6187,6.629,6.6291,6.6293,6.6276,6.6273,6.627,6.6268,6.6373,6.638,6.6387,6.6486,0,0,6.6408,6.6411,0,0,0,0,0,0,0,0,6.604,6.6054,6.6183,6.6185,6.6187,6.6266,6.6246,6.6358,6.6277,6.6242,6.627,6.6266,6.6341,6.6351,6.6378,6.6491,6.6495,6.6408,6.6413,6.6416,6.6417,0,0,0,0,0,0,0,6.6032,6.6049,6.6222,6.6184,6.6187,6.618,6.6192,6.6267,6.6306,6.6245,6.6244,6.6258,6.6342,6.6371,6.638,6.6497,6.6408,6.6414,6.6419,6.6421,6.6694,6.6697,0,0,0,0,0,0,6.6024,6.6043,6.6218,6.6225,6.6105,6.6187,6.62,6.6243,6.6305,6.6312,6.626,6.6257,6.6361,6.6372,6.6384,6.6503,6.6415,6.6422,6.6426,6.6691,6.6695,6.6698,0,0,0,0,0,0,6.6019,6.604,6.6214,6.6134,6.6156,6.6194,6.6242,6.6247,6.6276,6.6317,6.6323,6.6284,6.6359,6.6374,6.6461,6.6506,6.6425,6.6431,6.6687,6.6692,6.6696,6.6742,0,0,0,0,0,0,6.6012,6.6038,6.6078,6.6135,6.616,6.6292,6.6245,6.6251,6.6289,6.6286,6.634,6.6347,6.6358,6.645,6.6467,6.6514,6.6437,6.6683,6.6689,6.6695,6.6736,6.6748,6.6757,0,0,0,0,0,6.6004,6.6085,6.6081,6.6102,6.6212,6.6294,6.6308,6.6322,6.6293,6.6332,6.6358,6.6345,6.6499,6.6459,6.6478,6.6528,6.6681,6.6688,6.6695,6.6732,6.6745,6.6757,0,0,0,0,0,0,6.603,6.6093,6.6088,6.6192,6.6238,6.6291,6.6342,6.6336,6.639,6.6384,6.6396,6.6408,6.6496,6.652,6.6476,6.6626,6.6585,6.6596,6.6607,6.662,6.663,6.6622,6.6442,0,0,0,0,0,6.6049,6.6113,6.6163,6.6249,6.6273,6.6303,6.634,6.6347,6.6394,6.6413,6.6445,6.6489,6.6547,6.6585,6.664,6.674,6.675,6.6783,6.6793,6.6801,6.681,6.6863,6.6877,6.6721,6.6721,6.6721,0,0,6.6086,6.6128,6.6168,6.6256,6.6293,6.6356,6.632,6.6389,6.6435,6.6422,6.6507,6.6531,6.6581,6.6674,6.6716,6.6697,6.6856,6.681,6.6817,6.6821,6.6871,6.6886,6.6899,6.6726,6.6725,6.6724,0,0,6.6187,6.6227,6.6302,6.634,6.6397,6.6417,6.6435,6.6489,6.6506,6.6591,6.6582,6.6635,6.6736,6.6771,6.6802,6.6915,6.6904,6.6933,6.6986,6.7037,6.7049,6.706,6.7099,6.7113,6.6942,6.6942,6.6942,0,6.6226,6.6325,6.6341,6.6412,6.6449,6.6442,6.6517,6.6552,6.6623,6.6647,6.6625,6.675,6.6783,6.6883,6.6911,6.6937,6.6956,6.6926,6.7047,6.7058,6.7068,6.7105,6.712,6.6945,6.6945,6.6944,6.6944,0,6.6369,6.6437,6.649,6.6562,6.6605,6.6677,6.6701,6.6743,6.6745,6.6766,6.6851,6.689,6.6953,6.6977,6.698,6.7078,6.7064,6.7044,6.7003,6.7086,6.7121,6.7135,6.6949,6.6948,6.6947,6.6946,0,0,6.649,6.657,6.6589,6.6621,6.6682,6.6734,6.6804,6.6868,6.6902,6.6951,6.7008,6.7093,6.7075,6.711,6.7116,6.7161,6.7245,6.7135,6.7136,6.7153,6.7353,6.7367,6.7384,6.7239,6.7242,6.7244,6.7349,0,6.6596,6.6724,6.674,6.6852,6.6913,6.6907,6.6968,6.701,6.7031,6.7084,6.7105,6.7165,6.7137,6.7158,6.7202,6.7226,6.7286,6.7219,6.7289,6.7292,6.7277,6.7402,6.7418,6.7515,6.7363,6.7365,6.7367,0,6.6738,6.6793,6.6912,6.6964,6.699,6.7045,6.7104,6.7156,6.7202,6.7214,6.7253,6.7253,6.7322,6.7279,6.7373,6.7327,6.7356,6.7372,6.7376,6.7383,6.7334,6.7411,6.7547,6.7561,6.7389,6.7387,6.7385,0,6.6813,6.6916,6.7001,6.7028,6.7091,6.713,6.7157,6.7201,6.7238,6.7289,6.7312,6.7369,6.74,6.7442,6.7456,6.7424,6.7549,6.7507,6.7558,6.7558,6.7584,6.7582,6.7726,6.7605,6.7605,6.7604,6.7604,0,6.6929,6.7002,6.7035,6.7087,6.7167,6.7183,6.726,6.7285,6.7325,6.7379,6.7376,6.7426,6.7442,6.7494,6.7505,6.7579,6.7593,6.7603,6.7605,6.7603,6.7602,6.7622,6.7615,6.7608,6.7607,6.7607,6.7606,0,6.7027,6.7053,6.7144,6.7197,6.7211,6.7268,6.7311,6.7359,6.7379,6.7447,6.7464,6.7494,6.7555,6.7573,6.7646,6.7653,6.774,6.7736,6.7726,6.7725,6.7775,6.777,6.7936,6.7958,6.7823,6.7824,6.7825,0,6.71,6.7156,6.7215,6.7252,6.7282,6.7342,6.738,6.7396,6.7435,6.7492,6.7533,6.7594,6.7643,6.774,6.7767,6.7822,6.7818,6.7873,6.7826,6.7822,6.7818,6.7814,6.7819,6.7881,6.7882,6.7884,6.7885,0,6.7225,6.7235,6.7292,6.7353,6.7399,6.7447,6.7493,6.7522,6.7545,6.7588,6.7652,6.7691,6.7766,6.7825,6.7881,6.7905,6.7898,6.7899,6.7913,6.7912,6.7903,6.7907,6.7748,6.7895,6.7894,6.7893,6.7893,6.7892,6.7311,6.736,6.741,6.7472,6.7509,6.7552,6.76,6.7626,6.768,6.7744,6.775,6.7818,6.786,6.7935,6.7963,6.8014,6.7998,6.8019,6.8024,6.8029,6.8033,6.7896,6.8024,6.8024,6.8024,6.8023,6.8023,0,6.7436,6.7467,6.7525,6.759,6.7639,6.763,6.768,6.772,6.7782,6.7824,6.7873,6.7945,6.8002,6.8033,6.8089,6.8124,6.8122,6.8139,6.8136,6.8141,6.8045,6.8026,6.8139,6.8139,6.8139,6.8139,6.8139,6.8139,6.7506,6.7588,6.7603,6.7702,6.7732,6.7801,6.783,6.7869,6.7902,6.7984,6.8032,6.8053,6.809,6.8149,6.82,6.8207,6.8227,6.8246,6.8251,6.816,6.8148,6.8137,6.8119,6.825,6.825,6.8343,6.8344,6.8344]}]]